Location: ?ern� Novina
(50.6762°N, 14.8696°E)
Time: 15:46:56
(UTC+00:00)

SeaSat 1 - Pass Details

Date: 03 March 2021
Orbit: 744 x 747 km, 108.0° (Epoch: 12 April)

Event Time Altitude Azimuth Distance (km) Brightness Sun altitude
Rises 17:54:15 0° 33° (NNE) 3,203 5.4 -11.7°
Reaches altitude 10° 17:56:36 10° 40° (NE) 2,275 4.6 -12.1°
Maximum altitude 18:01:23 48° 114° (ESE) 974 2.7 -12.8°
Drops below altitude 10° 18:06:08 10° 189° (S) 2,260 5.0 -13.6°
Sets 18:08:28 0° 195° (SSW) 3,180 5.8 -13.9°
